Regional Weather Roundup
Issued by NWS

Home | Current Version | Previous Version | Text Only | Print | Product List | Glossary Off
Versions: 1 2 3 4 5 6 7 8 9 10 11 12 13 14 15 16 17 18 19 20 21 22 23 24 25 26 27 28 29 30 31 32 33 34 35 36 37 38 39 40 41 42 43 44 45 46 47 48 49 50

000
ASUS43 KOAX 191102
RWRNE

WEATHER ROUNDUP FOR NEBRASKA
NATIONAL WEATHER SERVICE OMAHA NE
500 AM CST FRI DEC 19 2014

NOTES: SATELLITE DATA IS BEING USED TO AUGMENT CLOUD COVER ABOVE
       12000 FEET.
       "FAIR" INDICATES FEW OR NO CLOUDS BELOW 12,000 FEET WITH NO
       SIGNIFICANT WEATHER AND/OR OBSTRUCTIONS TO VISIBILITY.

  * THESE STATIONS DO NOT REPORT WEATHER SUCH AS RAIN...SNOW OR FOG.

NEZ001>004-019>022-054>056-191200-
NEBRASKA PANHANDLE

CITY           SKY/WX    TMP DP  RH WIND       PRES   REMARKS
SCOTTSBLUFF    CLEAR      4   1  88 N3        30.06R
ALLIANCE       PTCLDY     4   1  88 SW8       30.03F WCI  -9
CHADRON        PTCLDY     9   6  88 SW6       30.04S WCI  -1
SIDNEY         CLEAR     18  13  80 W9        30.05F WCI   7
$$

NEZ057>060-069>072-079>082-191200-
SOUTHWEST NEBRASKA

CITY           SKY/WX    TMP DP  RH WIND       PRES   REMARKS
NORTH PLATTE   PTCLDY    15  10  80 CALM      30.08F HAZE
IMPERIAL       CLEAR     16  12  84 W5        30.08F FOG     WCI   9
MCCOOK         FOG       18  16  92 W3        30.11F VSB 1/4
$$

NEZ005>010-023>029-035>040-094-191200-
NORTH CENTRAL NEBRASKA

CITY           SKY/WX    TMP DP  RH WIND       PRES   REMARKS
VALENTINE      PTCLDY    12   9  87 SW6       30.04F WCI   3
BROKEN BOW     FOG       25  24  96 SW9       30.09S VSB 1/2 WCI  15
$$

NEZ041-046>049-061>064-073>077-083>087-191200-
SOUTH CENTRAL NEBRASKA

CITY           SKY/WX    TMP DP  RH WIND       PRES   REMARKS
GRAND ISLAND   CLOUDY    30  27  88 SW8       30.15F WCI  22
HASTINGS       CLOUDY    31  27  85 SW5       30.14F WCI  26
KEARNEY *      CLOUDY    28  27  93 SW9       30.12F WCI  20
$$

NEZ011>018-030>034-042>045-191200-
NORTHEAST NEBRASKA

CITY           SKY/WX    TMP DP  RH WIND       PRES   REMARKS
NORFOLK        CLOUDY    30  25  81 SW9       30.15F WCI  22
COLUMBUS *     CLOUDY    30  25  80 SW8       30.18F WCI  23
TEKAMAH        CLOUDY    31  29  92 S7        30.21F FOG     WCI  24
$$

NEZ050>053-065>068-078-088>093-191200-
SOUTHEAST NEBRASKA

CITY           SKY/WX    TMP DP  RH WIND       PRES   REMARKS
LINCOLN        CLOUDY    31  28  89 S3        30.21F FOG
OMAHA EPPLEY   CLOUDY    31  28  89 SE6       30.23F WCI  25
FALLS CITY     CLOUDY    29  26  89 SW5       30.24F WCI  24
$$

NEZ044-045-051>053-067-191200-
OMAHA AREA

CITY           SKY/WX    TMP DP  RH WIND       PRES   REMARKS
OMAHA EPPLEY   CLOUDY    31  28  89 SE6       30.23F WCI  25
OFFUTT AFB     CLOUDY    30  28  92 SE5       30.21F WCI  25
$$


USA.gov is the U.S. government's official web portal to all federal, state and local government web resources and services.